When you browse on this site, cookies collect data to enhance your experience and personalize the content and advertising you see.
Visit our Privacy Policy to learn more. By continuing to use the site, you agree to this use of cookies and data.
  • în România
  • Lista ţărilor
  • Pe 7 zile
  • Temperatura apei
  • Hartă satelitară
  • Meteo pe hartă
  • Widget-uri
  • user-avatar
    Intrare

    Meteo pe oră la Makowice

    Astăzi, 19 Decembrie, Miercuri

    Timp Temperatura Precipitaţii Vânt Presiune Umiditate
    00:00 -2°C° 0 mm 2 m/s 749 mmHg 91%
    01:00 -2°C° 0 mm 2 m/s 748 mmHg 91%
    02:00 -2°C° 0 mm 3 m/s 748 mmHg 91%
    03:00 -2°C° 0 mm 3 m/s 748 mmHg 90%
    04:00 -2°C° 0 mm 3 m/s 747 mmHg 90%
    05:00 -2°C° 0 mm 3 m/s 747 mmHg 89%
    06:00 -2°C° 0 mm 3 m/s 747 mmHg 89%
    07:00 -2°C° 0 mm 3 m/s 747 mmHg 89%
    08:00 -3°C° 0 mm 4 m/s 747 mmHg 86%
    09:00 -2°C° 0 mm 4 m/s 746 mmHg 83%
    10:00 -1°C° 0 mm 4 m/s 746 mmHg 81%
    11:00 -1°C° 0 mm 4 m/s 746 mmHg 79%
    12:00 -1°C° 0 mm 5 m/s 746 mmHg 78%
    13:00 0°C° 0 mm 5 m/s 746 mmHg 76%
    14:00 -1°C° 0 mm 5 m/s 745 mmHg 77%
    15:00 -1°C° 0 mm 4 m/s 745 mmHg 78%
    16:00 -2°C° 0 mm 4 m/s 745 mmHg 80%
    17:00 -2°C° 0 mm 4 m/s 745 mmHg 80%
    18:00 -2°C° 0 mm 4 m/s 744 mmHg 79%
    19:00 -2°C° 0 mm 4 m/s 744 mmHg 79%
    20:00 -2°C° 0.1 mm 4 m/s 744 mmHg 79%
    21:00 -2°C° 0.1 mm 4 m/s 744 mmHg 79%
    22:00 -2°C° 0.1 mm 4 m/s 744 mmHg 80%
    23:00 -2°C° 0.2 mm 4 m/s 744 mmHg 80%

    Mâine, 20 Decembrie, Joi

    Timp Temperatura Precipitaţii Vânt Presiune Umiditate
    00:00 -2°C° 0.2 mm 4 m/s 744 mmHg 80%
    01:00 -2°C° 0.2 mm 4 m/s 744 mmHg 80%
    02:00 -2°C° 0.1 mm 3 m/s 743 mmHg 81%
    03:00 -2°C° 0.1 mm 3 m/s 743 mmHg 82%
    04:00 -2°C° 0.1 mm 3 m/s 743 mmHg 82%
    05:00 -2°C° 0.2 mm 3 m/s 743 mmHg 83%
    06:00 -2°C° 0.2 mm 3 m/s 743 mmHg 84%
    07:00 -2°C° 0.2 mm 3 m/s 743 mmHg 84%
    08:00 -2°C° 0.1 mm 3 m/s 743 mmHg 83%
    09:00 -3°C° 0.1 mm 4 m/s 744 mmHg 83%
    10:00 -2°C° 0.1 mm 4 m/s 744 mmHg 82%
    11:00 -2°C° 0.1 mm 4 m/s 744 mmHg 83%
    12:00 -1°C° 0.1 mm 3 m/s 744 mmHg 83%
    13:00 0°C° 0.1 mm 3 m/s 743 mmHg 84%
    14:00 0°C° 0.1 mm 3 m/s 743 mmHg 85%
    15:00 0°C° 0.1 mm 3 m/s 743 mmHg 87%
    16:00 0°C° 0.1 mm 3 m/s 743 mmHg 88%
    17:00 0°C° 0 mm 3 m/s 744 mmHg 88%
    18:00 0°C° 0 mm 3 m/s 744 mmHg 88%
    19:00 -1°C° 0 mm 4 m/s 744 mmHg 88%
    20:00 -1°C° 0 mm 4 m/s 744 mmHg 88%
    21:00 +1°C° 0 mm 3 m/s 744 mmHg 89%
    22:00 +1°C° 0 mm 3 m/s 744 mmHg 89%
    23:00 0°C° 0 mm 4 m/s 744 mmHg 89%

    Poimâine, 21 Decembrie, Vineri

    Timp Temperatura Precipitaţii Vânt Presiune Umiditate
    00:00 0°C° 0 mm 4 m/s 744 mmHg 89%
    01:00 0°C° 0 mm 4 m/s 744 mmHg 89%
    02:00 0°C° 0 mm 4 m/s 743 mmHg 89%
    03:00 0°C° 0 mm 4 m/s 743 mmHg 89%
    04:00 0°C° 0 mm 4 m/s 743 mmHg 89%
    05:00 0°C° 0.3 mm 4 m/s 742 mmHg 88%
    06:00 0°C° 0.3 mm 5 m/s 742 mmHg 87%
    07:00 +1°C° 0.3 mm 5 m/s 742 mmHg 87%
    08:00 +1°C° 0.1 mm 5 m/s 741 mmHg 86%
    09:00 +1°C° 0.1 mm 5 m/s 741 mmHg 85%
    10:00 +1°C° 0.1 mm 5 m/s 741 mmHg 85%
    11:00 +1°C° 0.3 mm 5 m/s 740 mmHg 85%
    12:00 +2°C° 0.3 mm 6 m/s 739 mmHg 84%
    13:00 +2°C° 0.3 mm 6 m/s 738 mmHg 84%
    14:00 +2°C° 0.4 mm 6 m/s 738 mmHg 84%
    15:00 +2°C° 0.4 mm 6 m/s 737 mmHg 84%
    16:00 +2°C° 0.4 mm 6 m/s 736 mmHg 84%
    17:00 +2°C° 0.9 mm 6 m/s 736 mmHg 85%
    18:00 +3°C° 0.9 mm 7 m/s 735 mmHg 86%
    19:00 +3°C° 0.9 mm 7 m/s 734 mmHg 86%
    20:00 +4°C° 0.3 mm 7 m/s 734 mmHg 86%
    21:00 +5°C° 0.3 mm 7 m/s 734 mmHg 86%
    22:00 +6°C° 0.3 mm 7 m/s 733 mmHg 86%
    23:00 +6°C° 0.1 mm 7 m/s 734 mmHg 86%

    22 Decembrie, Sâmbătă

    Timp Temperatura Precipitaţii Vânt Presiune Umiditate
    00:00 +6°C° 0.1 mm 7 m/s 734 mmHg 87%
    01:00 +6°C° 0.1 mm 7 m/s 734 mmHg 88%
    02:00 +5°C° 0 mm 6 m/s 734 mmHg 86%
    03:00 +4°C° 0 mm 6 m/s 735 mmHg 85%
    04:00 +4°C° 0 mm 6 m/s 735 mmHg 83%
    05:00 +5°C° 0 mm 5 m/s 735 mmHg 83%
    06:00 +3°C° 0 mm 5 m/s 735 mmHg 84%
    07:00 +3°C° 0 mm 5 m/s 735 mmHg 84%
    08:00 +5°C° 0 mm 5 m/s 735 mmHg 84%
    09:00 +5°C° 0 mm 5 m/s 735 mmHg 83%
    10:00 +5°C° 0 mm 6 m/s 735 mmHg 83%
    11:00 +5°C° 0.2 mm 6 m/s 735 mmHg 82%
    12:00 +5°C° 0.2 mm 6 m/s 735 mmHg 82%
    13:00 +7°C° 0.2 mm 6 m/s 734 mmHg 81%
    14:00 +7°C° 0.3 mm 6 m/s 735 mmHg 82%
    15:00 +6°C° 0.3 mm 7 m/s 735 mmHg 82%
    16:00 +5°C° 0.3 mm 8 m/s 736 mmHg 82%
    17:00 +5°C° 0.1 mm 8 m/s 736 mmHg 79%
    18:00 +4°C° 0.1 mm 8 m/s 737 mmHg 76%
    19:00 +3°C° 0.1 mm 9 m/s 738 mmHg 74%
    20:00 +4°C° 0 mm 8 m/s 738 mmHg 75%
    21:00 +2°C° 0 mm 8 m/s 738 mmHg 77%
    22:00 +3°C° 0 mm 7 m/s 739 mmHg 79%
    23:00 +3°C° 0 mm 7 m/s 739 mmHg 81%

    23 Decembrie, Duminică

    Timp Temperatura Precipitaţii Vânt Presiune Umiditate
    00:00 +3°C° 0 mm 6 m/s 739 mmHg 82%
    01:00 +3°C° 0 mm 6 m/s 739 mmHg 83%
    02:00 +2°C° 0 mm 6 m/s 739 mmHg 84%
    03:00 +2°C° 0 mm 6 m/s 739 mmHg 85%
    04:00 +2°C° 0 mm 5 m/s 739 mmHg 86%
    05:00 +2°C° 0 mm 6 m/s 740 mmHg 85%
    06:00 +2°C° 0 mm 6 m/s 740 mmHg 84%
    07:00 +2°C° 0 mm 6 m/s 740 mmHg 83%
    08:00 +3°C° 0 mm 6 m/s 741 mmHg 83%
    09:00 +3°C° 0 mm 6 m/s 741 mmHg 82%
    10:00 +3°C° 0 mm 7 m/s 741 mmHg 81%
    11:00 +3°C° 0 mm 7 m/s 741 mmHg 79%
    12:00 +3°C° 0 mm 7 m/s 741 mmHg 78%
    13:00 +3°C° 0 mm 7 m/s 742 mmHg 76%
    14:00 +3°C° 0 mm 7 m/s 742 mmHg 77%
    15:00 +3°C° 0 mm 6 m/s 742 mmHg 78%
    16:00 +2°C° 0 mm 6 m/s 742 mmHg 79%
    17:00 +2°C° 0.1 mm 5 m/s 742 mmHg 80%
    18:00 +2°C° 0.1 mm 5 m/s 742 mmHg 80%
    19:00 +2°C° 0.1 mm 5 m/s 742 mmHg 81%
    20:00 +2°C° 0.1 mm 5 m/s 742 mmHg 82%
    21:00 +2°C° 0.1 mm 5 m/s 742 mmHg 83%
    22:00 +2°C° 0.1 mm 6 m/s 742 mmHg 83%
    23:00 +2°C° 0.1 mm 6 m/s 742 mmHg 83%

    24 Decembrie, Luni

    Timp Temperatura Precipitaţii Vânt Presiune Umiditate
    00:00 +2°C° 0.1 mm 7 m/s 743 mmHg 82%
    01:00 +2°C° 0.1 mm 7 m/s 743 mmHg 81%
    02:00 +2°C° 0.4 mm 7 m/s 743 mmHg 83%
    03:00 +2°C° 0.4 mm 6 m/s 744 mmHg 84%
    04:00 +1°C° 0.4 mm 5 m/s 744 mmHg 86%
    05:00 +1°C° 0.5 mm 5 m/s 745 mmHg 88%
    06:00 +1°C° 0.5 mm 4 m/s 745 mmHg 89%
    07:00 +2°C° 0.5 mm 3 m/s 746 mmHg 91%
    08:00 +1°C° 0.2 mm 4 m/s 746 mmHg 89%
    09:00 +1°C° 0.2 mm 4 m/s 747 mmHg 88%
    10:00 +3°C° 0.2 mm 4 m/s 747 mmHg 87%
    11:00 +3°C° 0.1 mm 4 m/s 747 mmHg 85%
    12:00 +2°C° 0.1 mm 5 m/s 747 mmHg 83%
    13:00 +3°C° 0.1 mm 5 m/s 747 mmHg 81%
    14:00 +2°C° 0 mm 5 m/s 747 mmHg 82%
    15:00 +3°C° 0 mm 4 m/s 747 mmHg 84%
    16:00 +3°C° 0 mm 4 m/s 747 mmHg 85%
    17:00 +3°C° 0.1 mm 4 m/s 748 mmHg 85%
    18:00 +2°C° 0.1 mm 5 m/s 748 mmHg 86%
    19:00 +2°C° 0.1 mm 5 m/s 748 mmHg 86%
    20:00 +1°C° 0 mm 5 m/s 748 mmHg 85%
    21:00 +1°C° 0 mm 5 m/s 748 mmHg 83%
    22:00 +1°C° 0 mm 5 m/s 748 mmHg 82%
    23:00 +1°C° 0.1 mm 5 m/s 748 mmHg 83%
    Arată mai mult